TimeMST,TemperatureF,Dew PointF,Humidity,Sea Level PressureIn,VisibilityMPH,Wind Direction,Wind SpeedMPH,Gust SpeedMPH,PrecipitationIn,Events,Conditions,WindDirDegrees,DateUTC
12:52 AM,33.1,26.1,75,29.82,10.0,SSW,13.8,-,N/A,,Clear,200,2013-01-28 07:52:00
1:52 AM,34.0,25.0,70,29.79,10.0,SSW,18.4,-,N/A,,Clear,210,2013-01-28 08:52:00
2:52 AM,34.0,25.0,70,29.74,10.0,SSW,18.4,-,N/A,,Clear,210,2013-01-28 09:52:00
3:52 AM,34.0,26.1,73,29.72,10.0,SSW,20.7,-,N/A,,Clear,200,2013-01-28 10:52:00
4:52 AM,34.0,27.0,75,29.72,10.0,South,20.7,-,N/A,,Clear,190,2013-01-28 11:52:00
5:52 AM,34.0,28.9,82,29.72,10.0,South,21.9,28.8,N/A,,Clear,190,2013-01-28 12:52:00
6:52 AM,34.0,28.9,82,29.75,10.0,South,16.1,-,N/A,,Partly Cloudy,180,2013-01-28 13:52:00
7:52 AM,36.0,28.9,76,29.74,10.0,South,17.3,-,N/A,,Mostly Cloudy,180,2013-01-28 14:52:00
8:52 AM,36.0,30.0,79,29.71,10.0,South,15.0,27.6,N/A,,Overcast,180,2013-01-28 15:52:00
9:52 AM,36.0,30.0,79,29.71,5.0,South,18.4,33.4,0.00,Snow,Light Snow,190,2013-01-28 16:52:00
10:52 AM,39.0,28.9,67,29.69,10.0,SSW,23.0,29.9,0.00,,Mostly Cloudy,210,2013-01-28 17:52:00
11:52 AM,37.0,30.0,76,29.68,8.0,WSW,13.8,-,0.00,Snow,Light Snow,240,2013-01-28 18:52:00
12:52 PM,37.9,26.1,62,29.64,10.0,SW,25.3,33.4,0.00,,Scattered Clouds,220,2013-01-28 19:52:00
1:52 PM,37.9,27.0,65,29.61,10.0,SSW,23.0,28.8,N/A,,Scattered Clouds,200,2013-01-28 20:52:00
2:52 PM,33.8,30.2,87,29.69,10.0,SSW,19.6,26.5,N/A,,Scattered Clouds,210,2013-01-28 21:52:00
3:52 PM,37.0,23.0,57,29.63,10.0,SW,25.3,32.2,0.00,,Clear,220,2013-01-28 22:52:00
4:52 PM,33.1,21.9,64,29.67,10.0,WSW,9.2,-,N/A,,Clear,240,2013-01-28 23:52:00
5:52 PM,30.0,21.0,69,29.68,10.0,SW,13.8,-,N/A,,Clear,220,2013-01-29 00:52:00
6:52 PM,28.0,21.0,75,29.70,10.0,WSW,9.2,-,N/A,,Scattered Clouds,240,2013-01-29 01:52:00
7:52 PM,28.0,18.0,66,29.69,10.0,West,15.0,-,N/A,,Partly Cloudy,270,2013-01-29 02:52:00
8:52 PM,24.1,17.1,75,29.74,10.0,WSW,8.1,-,N/A,,Clear,240,2013-01-29 03:52:00
9:52 PM,23.0,17.1,78,29.74,10.0,South,8.1,-,N/A,,Clear,180,2013-01-29 04:52:00
10:52 PM,21.9,15.1,75,29.71,10.0,South,11.5,-,N/A,,Clear,180,2013-01-29 05:52:00
11:52 PM,21.9,14.0,72,29.70,10.0,South,12.7,-,N/A,,Clear,190,2013-01-29 06:52:00